STARLINK-3138 (49430 NORAD) Tracking and Keplerian Element Data

This shows tracking and keplerian element data for the satellite.

Feedback or suggestion? Click here.




ElementValue
Catalog49430
NameSTARLINK-3138
Epoch Orbit485
Epoch Day340.25001157
Epoch Year2021
RAAN20.6034
Inclination53.2189
Eccentricity0.0001932
Argument of Perigee29.3311
Mean Anonmoly121.1317
Mean Motion15.73262879
Decay Rate-0.00051762
L11 49430U 21104Y 21340.25001157 -.00051762 00000+0 -36563-3 0 9997
L22 49430 53.2189 20.6034 0001932 29.3311 121.1317 15.73262879 4852

Live tracking and technical data element details for STARLINK-3138 (NORAD 49430). STARLINK-3138 can be tracked NOW for your location showing map with azimuth and elevation plus other details from your city location.

Track the satellite on the map from your city or location and see movement details for azimuth, elevation, latitude, longitude, range, height, and movement on the map or in text.







IsCatalogInMostPopularTable: catalog: 49430, numindb: 1
Update: records affected: 1



GetName: 49430 STARLINK-3138

Hit Count: updated at: Wed, 08 Dec 2021 16:11:11 GMT